Regional Weather Roundup
Issued by NWS

Home | Current Version | Previous Version | Graphics & Text | Print | Product List | Glossary On
Versions: 1 2 3 4 5 6 7 8 9 10 11 12 13 14 15 16 17 18 19 20 21 22 23 24 25 26 27 28 29 30 31 32 33 34 35 36 37 38 39 40 41 42 43 44 45 46 47 48 49 50
000
ASUS43 KLSX 200307
RWRMO

WEATHER SUMMARY FOR MISSOURI
NATIONAL WEATHER SERVICE SPRINGFIELD MO
900 PM CST SUN FEB 19 2017

NOTE: "FAIR" INDICATES FEW OR NO CLOUDS BELOW 12,000 FEET WITH NO
       SIGNIFICANT WEATHER AND/OR OBSTRUCTIONS TO VISIBILITY.
       CURRENT SKY AND/OR WEATHER CONDITIONS ARE NOT AVAILABLE FOR
       CHILLICOTHE AND FARMINGTON.

MOZ001>031-035>038-043-044-053-054-200400-
...NORTHERN AND WESTERN MISSOURI...

CITY           SKY/WX    TMP DP  RH WIND       PRES   REMARKS
KANSAS CTY INT MOCLDY    59  52  77 S9        29.90R
KANSAS C DTWN  PTCLDY    65  52  62 S8        29.90R
LEE`S SUMMIT   MOCLDY    67  54  63 S10       29.92R
ST JOSEPH      PTCLDY    60  54  80 S8        29.88R
CHILLICOTHE      N/A     62  46  55 E5        29.91F
KIRKSVILLE     PTCLDY    60  47  61 SE12      29.96S

$$
MOZ066>068-077>081-088>096-101>105-200400-
...SOUTHWEST MISSOURI...

CITY           SKY/WX    TMP DP  RH WIND       PRES   REMARKS
SPRINGFIELD    CLEAR     63  56  78 S16       29.98R
JOPLIN         MOCLDY    68  55  63 SE7       29.93R
BRANSON        MOCLDY    63  55  77 SE14      30.02R

$$
MOZ032>034-039>042-045>050-055>058-069>072-200400-
...CENTRAL MISSOURI...

CITY           SKY/WX    TMP DP  RH WIND       PRES   REMARKS
COLUMBIA       PTCLDY    64  50  60 SE12      29.98S
JEFFERSON CITY CLEAR     66  53  63 SE12      29.99R
ROLLA          CLEAR     61  53  75 SE9       30.02R
SEDALIA        PTCLDY    67  54  63 SE13      29.95S
WHITEMAN AFB   PTCLDY    66  57  73 S14       29.92S
WARRENSBURG    PTCLDY    64  52  63 SE14      29.91S
OSAGE BEACH    CLEAR     64  56  75 SE8       29.99F

$$
MOZ051-052-059>065-200400-
...EAST CENTRAL MISSOURI...

CITY           SKY/WX    TMP DP  RH WIND       PRES   REMARKS
ST LOUIS INTL  MOCLDY    62  52  69 SE12      30.06R
SPIRIT OF STL  CLOUDY    62  52  69 SE5       30.04R
ST CHARLES     CLOUDY    54  50  86 SE8       30.05R

$$
MOZ072>076-082>087-097>100-106>115-200400-
...SOUTH CENTRAL AND SOUTHEAST MISSOURI...

CITY           SKY/WX    TMP DP  RH WIND       PRES   REMARKS
CAPE GIRARDEAU FOG       48  48 100 CALM      30.10R VSB 1/4
FARMINGTON     CLEAR     56  53  90 S8        30.09R
POPLAR BLUFF   FOG       54  54 100 CALM      30.09R VSB 3/4
WEST PLAINS    CLEAR     59  55  87 SE6       30.06S

$$


USA.gov is the U.S. government's official web portal to all federal, state and local government web resources and services.